Simultaneous Nadir Overpasses (SNOs) Predictions

Prediction of SNOs between AQUA and METOP-A Satellite Orbit:

Table of predicted SNOs for the next 14.0 days since TLE Epoch: 10/19/2011
Index Date Time (AQUA) AQUA Lat,Lon METOP-A Lat,Lon Distance(km) Time Diff (sec)
1 10/21/2011 16:27:27 73.51, -72.35 73.44, -73.32 32.04 71
2 10/21/2011 17:16:57 -73.75, 94.79 -73.76, 94.75 1.66 5
3 10/21/2011 18:06:26 73.82, -97.75 73.82, -97.76 0.74 64
4 10/24/2011 11:11:14 -70.42,-168.05 -70.41, 179.97 446.01 13
5 10/24/2011 12:01:43 73.72, -6.34 73.70, -6.29 2.28 67
6 10/24/2011 12:51:10 -73.79, 161.14 -73.77, 161.20 2.77 7
7 10/24/2011 13:40:41 73.98, -31.65 73.98, -30.95 21.35 71
8 10/27/2011 06:45:44 -71.50,-103.30 -71.51,-111.76 298.31 40
9 10/27/2011 07:35:53 73.72, 60.11 73.70, 60.11 1.72 53
10 10/27/2011 08:25:20 -73.79,-132.40 -73.78,-132.39 1.54 21
11 10/27/2011 09:15:01 74.50, 33.58 74.52, 36.85 96.97 64
12 10/30/2011 02:20:08 -72.25, -38.15 -72.26, -43.93 195.72 54
13 10/30/2011 03:10:03 73.72, 126.56 73.74, 126.60 2.05 39
14 10/30/2011 03:59:30 -73.79, -65.94 -73.81, -65.90 2.65 35
15 10/30/2011 04:49:23 75.11, 98.46 75.09, 104.84 182.18 55
16 11/01/2011 21:54:30 -72.95, 27.00 -72.89, 23.77 105.56 64
17 11/01/2011 22:44:12 73.73,-166.99 73.75,-166.95 3.06 24
18 11/01/2011 23:33:39 -73.79, 0.51 -73.78, 0.43 3.06 51




NCC Satellite Simultaneous Nadir Overpasses (SNOs) Prediction Service
